Home > Weather > Kreuzlingen > Past weeks

Flag for Switzerland Past Weather in Kreuzlingen, Thurgau, Switzerland — Yesterday and Last 2 Weeks

Now
72 °F

Passing clouds.


Feels Like: 72 °F
Forecast: 58 / 72 °F
Wind: 6 mph from Southwest

Location: Friedrichshafen Airport

Current Time: Jul 1, 2016 at 12:02:55 PM

Latest Report: Jul 1, 2016 at 11:20 AM


Visibility: N/A

Pressure: 30.09 "Hg

Humidity: 78%

Dew Point: 64 °F

Location of KreuzlingenLocation

Past Weather in Kreuzlingen — Graph

°F

Kreuzlingen Temperature Yesterday

Maximum temperature yesterday: 73 °F (at 3:20 PM)
Minimum temperature yesterday: 59 °F (at 2:50 AM)
Average temperature yesterday: 66 °F

High & Low Weather Summary for the Past Weeks

 TemperatureHumidityPressure
High91 °F (Jun 23, 6:20 PM)100% (Jun 16, 11:20 PM)30.27 "Hg (Jun 16, 11:20 PM)
Low48 °F (Jun 17, 6:20 AM)36% (Jun 28, 4:20 PM)29.62 "Hg (Jun 16, 10:20 AM)
Average65 °F78%30.08 "Hg
* Reported Jun 16 10:20 AM — Jul 1 10:50 AM, Kreuzlingen, Weather by CustomWeather, © 2016

Note: Actual official high and low records may vary slightly from our data, if they occured in-between our weather recording intervals... More about our weather records

Advertising

Kreuzlingen Weather History for the Previous 24 Hours

Scroll right to see more
 ConditionsComfort  
Time TempWeatherWind HumidityBarometerVisibility
10:50 AM
Fri, Jul 1
70 °FSunny.7 mph83%30.09 "Hg10 mi
10:20 AM72 °FSunny.3 mph73%30.09 "Hg10 mi
9:50 AM72 °FSunny.2 mph69%30.09 "Hg10 mi
9:20 AM70 °FPassing clouds.2 mph69%30.09 "HgN/A
8:50 AM68 °FSunny.2 mph73%30.09 "Hg10 mi
8:20 AM66 °FPassing clouds.5 mph78%30.09 "HgN/A
7:50 AM64 °FSunny.5 mph83%30.09 "Hg10 mi
7:20 AM63 °FSunny.6 mph88%30.09 "Hg10 mi
6:50 AM61 °FSunny.5 mph94%30.09 "Hg10 mi
6:20 AM61 °FClear.5 mph94%30.09 "Hg10 mi
5:50 AM59 °FPassing clouds.5 mph100%30.07 "HgN/A
5:20 AM59 °FPassing clouds.5 mph100%30.09 "HgN/A
4:50 AM61 °FCool.1 mph94%30.09 "HgN/A
4:20 AM61 °FPassing clouds.2 mph100%30.09 "HgN/A
3:50 AM63 °FPartly cloudy.5 mph94%30.09 "HgN/A
3:20 AM63 °FMostly cloudy.2 mph94%30.09 "HgN/A
2:50 AM63 °FPassing clouds.2 mph94%30.07 "HgN/A
2:20 AM63 °FOvercast.2 mph94%30.09 "HgN/A
1:50 AM63 °FPassing clouds.2 mph94%30.07 "HgN/A
1:20 AM63 °FPassing clouds.5 mph94%30.09 "HgN/A
12:50 AM63 °FPartly cloudy.6 mph94%30.07 "HgN/A
12:20 AM63 °FPartly cloudy.2 mph94%30.09 "HgN/A
11:50 PM
Thu, Jun 30
64 °FSprinkles. Mostly cloudy.6 mph88%30.07 "HgN/A
11:20 PM64 °FLight rain. Passing clouds.6 mph88%30.09 "HgN/A
10:50 PM66 °FPartly cloudy.6 mph88%30.07 "HgN/A
10:20 PM66 °FMostly cloudy.6 mph88%30.07 "HgN/A
9:50 PM68 °FLight rain. Overcast.5 mph83%30.07 "HgN/A
9:20 PM70 °FLight rain. Partly sunny.6 mph78%30.04 "HgN/A
8:50 PM70 °FBroken clouds.5 mph78%30.04 "HgN/A
8:20 PM72 °FBroken clouds.5 mph73%30.04 "HgN/A
7:50 PM73 °FPartly sunny.5 mph69%30.01 "HgN/A
7:20 PM72 °FPartly sunny.5 mph69%30.01 "HgN/A
6:50 PM72 °FPartly sunny.6 mph73%30.01 "HgN/A
6:20 PM72 °FPartly sunny.8 mph69%30.01 "HgN/A
5:50 PM73 °FScattered clouds.6 mph61%30.01 "HgN/A
5:20 PM72 °FScattered clouds.7 mph69%30.01 "HgN/A
4:50 PM73 °FScattered clouds.7 mph65%30.01 "HgN/A
4:20 PM72 °FScattered clouds.7 mph65%30.01 "HgN/A
3:50 PM73 °FScattered clouds.5 mph69%30.04 "HgN/A
3:20 PM73 °FPassing clouds.6 mph69%30.04 "HgN/A
2:50 PM72 °FPassing clouds.6 mph73%30.04 "HgN/A
2:20 PM72 °FPassing clouds.3 mph69%30.04 "HgN/A
1:50 PM70 °FScattered clouds.3 mph83%30.04 "HgN/A
1:20 PM68 °FPartly sunny.3 mph88%30.04 "HgN/A
12:50 PM66 °FPartly sunny.3 mph88%30.04 "HgN/A
12:20 PM66 °FBroken clouds.2 mph88%30.04 "HgN/A
Weather by CustomWeather, © 2016

See weather overviewHow to use our weather pages